This is the latest recevied weather packets stored in our database for station/object XE2RCS-34. If no packets are shown the sender has not sent any weather packets the latest 10 day(s).
| Time | Temp. | Humidity | Pressure | Rain* | Wind** | Luminosity | Snow |
|---|---|---|---|---|---|---|---|
| 1777838905 | 17.22° C | 61% | 1049.1 hPa | - | - | - | - |
| 1777838005 | 16.67° C | 62% | 1049.3 hPa | - | - | - | - |
| 1777837105 | 16.11° C | 63% | 1049.5 hPa | - | - | - | - |
| 1777836205 | 15.56° C | 63% | 1049.5 hPa | - | - | - | - |
| 1777835305 | 15° C | 63% | 1049.7 hPa | - | - | - | - |
| 1777834405 | 14.44° C | 64% | 1050.1 hPa | - | - | - | - |
| 1777833505 | 13.89° C | 64% | 1050.1 hPa | - | - | - | - |
| 1777832605 | 13.33° C | 64% | 1050.4 hPa | - | - | - | - |
| 1777831705 | 12.78° C | 65% | 1050.5 hPa | - | - | - | - |
| 1777830805 | 12.78° C | 64% | 1050.6 hPa | - | - | - | - |
| 1777829905 | 12.22° C | 64% | 1050.6 hPa | - | - | - | - |
| 1777829005 | 11.67° C | 64% | 1050.9 hPa | - | - | - | - |
| 1777828104 | 11.67° C | 64% | 1050.9 hPa | - | - | - | - |
| 1777827204 | 11.11° C | 64% | 1050.9 hPa | - | - | - | - |
| 1777826304 | 11.11° C | 64% | 1051 hPa | - | - | - | - |
| 1777825404 | 10.56° C | 64% | 1051 hPa | - | - | - | - |
| 1777824504 | 10.56° C | 65% | 1051 hPa | - | - | - | - |
| 1777823604 | 10° C | 65% | 1050.9 hPa | - | - | - | - |
| 1777822704 | 10° C | 65% | 1050.9 hPa | - | - | - | - |
| 1777821804 | 10° C | 65% | 1050.8 hPa | - | - | - | - |
| 1777820004 | 9.44° C | 65% | 1050.6 hPa | - | - | - | - |
| 1777819103 | 9.44° C | 65% | 1050.7 hPa | - | - | - | - |
| 1777818203 | 9.44° C | 65% | 1050.5 hPa | - | - | - | - |
| 1777817303 | 9.44° C | 65% | 1050.1 hPa | - | - | - | - |
| 1777816407 | 9.44° C | 65% | 1050.1 hPa | - | - | - | - |
* Rain since midnight (hover to see other rain measurements)
** Current wind speed in m/s (hover to see current wind gust speed)